Regional Weather Roundup
Issued by NWS Charleston, SC

Current Version | Previous Version | Graphics & Text | Print | Product List | Glossary On
Versions: 1 2 3 4 5 6 7 8 9 10 11 12 13 14 15 16 17 18 19 20 21 22 23 24 25 26 27 28 29 30 31 32 33 34 35 36 37 38 39 40 41 42 43 44 45 46 47 48 49 50
000
ASUS42 KCHS 050812
RWRCHS

REGIONAL WEATHER ROUNDUP
NATIONAL WEATHER SERVICE CHARLESTON SC
400 AM EDT TUE MAY 05 2015

NOTE: "FAIR" INDICATES FEW OR NO CLOUDS BELOW 12,000 FEET WITH NO
SIGNIFICANT WEATHER AND/OR OBSTRUCTIONS TO VISIBILITY.

NOT ALL STATIONS ARE QUALITY CONTROLLED BY THE NATIONAL
WEATHER SERVICE. USE DATA WITH CAUTION...ESPECIALLY
DEWPOINT OBSERVATIONS.

SCZ027-030-031-034>040-042>050-050900-
...SOUTHEAST SOUTH CAROLINA...

CITY           SKY/WX    TMP DP  RH WIND       PRES   REMARKS
N CHARLESTON   CLEAR     60  56  86 CALM      30.29F
WATERFRONT PRK NOT AVBL
MOUNT PLEASANT FAIR      57  57 100 MISG      30.30S
PINOPOLIS      NOT AVBL
MONCKS CORNER  FAIR      55  54  94 CALM      30.30S
SUMMERVILLE    FAIR      54  54 100 CALM      30.30F
BEAUFORT MCAS  CLEAR     62  59  90 NE5       30.28F
BEAUFORT ARPT  FAIR      63  63 100 CALM      30.27F
HILTON HEAD IS CLEAR     63  63 100 N3        30.28F
WALTERBORO     SUNNY     52  50  93 CALM      30.29F
ALLENDALE      FAIR      55  55 100 CALM      30.29R

...SOUTHERN MIDLANDS AND PEE DEE...

CITY           SKY/WX    TMP DP  RH WIND       PRES   REMARKS
GEORGETOWN     NOT AVBL
KINGSTREE      NOT AVBL
ORANGEBURG     CLEAR     55  52  89 CALM      30.30F
BARNWELL       FAIR      55  54  94 CALM      30.30F
AIKEN          FAIR      54  50  87 CALM      30.33S
MANNING        FAIR      50  43  76 CALM      30.30F
COLUMBIA       CLEAR     56  51  84 CALM      30.30F
SUMTER         CLEAR     54  52  92 E2        30.29F
FLORENCE       CLEAR     57  54  89 CALM      30.32R
MYRTLE BEACH     N/A     59  54  82 CALM      30.33F
N MYRTLE BEACH CLEAR     55  54  96 CALM      30.31S

$$

GAZ063-065-086>088-099>101-113>116-118-119-134>141-150-050900-
...SOUTHEAST GEORGIA...

CITY           SKY/WX    TMP DP  RH WIND       PRES   REMARKS
SAVANNAH ARPT  CLEAR     58  56  93 CALM      30.27F
HUNTER AAF     CLEAR     62  61  97 E2        30.24F
FORT STEWART   CLEAR     59  57  92 CALM      30.24F
STATESBORO       N/A     54  54 100 CALM      30.28S
SYLVANIA       SUNNY     55  55 100 CALM      30.29F
CLAXTON        FAIR      54  54 100 CALM      30.28S

...CSRA...CENTRAL AND FAR SOUTHEAST GEORGIA...

CITY           SKY/WX    TMP DP  RH WIND       PRES   REMARKS
THOMSON        CLEAR     57  57 100 CALM      30.34S
AUGUSTA-BUSH   CLEAR     53  52  96 CALM      30.29S
AUGUSTA-DANIEL CLEAR     63  55  75 E3        30.30F
SWAINSBORO     NOT AVBL
VIDALIA        CLEAR     59  57  94 NE5       30.27S
EASTMAN        FOG       54  54 100 CALM      30.29S VSB 1/2
HAZLEHURST     FAIR      62  58  88 E3        30.25S
ALMA           CLEAR     57  55  93 CALM      30.25S
WAYCROSS       CLEAR     60  59  95 CALM      30.24F
JESUP          FAIR      63  61  94 CALM      30.25F
BAXLEY         FAIR      61  59  94 E3        30.25F
BRUNSWICK        N/A     59  57  94 CALM      30.24F VSB 1/2
SAINT SIMONS   CLEAR     69  59  70 NE8       30.23F

$$

SCZ027-028-034-036>038-045-046-048>050-GAZ119-141-050900-
...LAKE AND SUPPLEMENTAL COASTAL OBSERVATIONS...

STATION/POSITION TIME  TEMP    WIND        PRES    WAVE   SWELL
                       AIR SEA DIR/SP/G            HT/PER HT/PER/DIR
                 (UTC) (F)     (DEG/KT/KT) (MB)    (FT/S) (FT/S/D)
UPR LAKE MARION  NOT AVBL
WINYAH BAY       0645   58     310/  2     1025.0
LAKE MURRAY      0700   67     180/  7/  8 1025.7F
ACE BASIN NERRS  NOT AVBL
FORT PULASKI     0712   70 70   70/  5/  7 1025.5F
SAPELO ISLAND    0700   65      60/  4     1024.0F

$$

ANZ835-935-AMZ111-154-330-350-352-354-370-450-454-472-050900-
...C-MAN AND BUOY OBSERVATIONS...

STATION/POSITION TIME  TEMP    WIND        PRES    WAVE   SWELL
                       AIR SEA DIR/SP/G            HT/PER HT/PER/DIR
                 (UTC) (F)     (DEG/KT/KT) (MB)    (FT/S) (FT/S/D)
BUOY 41004       0750   72 73  100/ 10/ 12 1025.2S   4/ 6   3/ 6
BUOY 41008       0750   70 70   50/ 10/ 10 1024.3F   4/ 6   3/120/ 6
FOLLY BEACH CMAN 0800   70      70/  6/  6 1025.6F
CAPERS NEARSHORE 0708   71     100/  6/ 10 1025.8F
FRIPP NEARSHORE  0700   70      90/  8/ 10 1024.7F


STATION/POSITION TIME  TEMP    WIND        PRES    WAVE   SWELL
                       AIR SEA DIR/SP/G            HT/PER HT/PER/DIR
                 (UTC) (F)     (DEG/KT/KT) (MB)    (FT/S) (FT/S/D)
5E ST. MARYS GA  0721      73                N/A     4/ 7   2/ 90/11
FRYING PAN BUOY  0750   72 71  130/ 12/ 14 1027.2F   4/ 5   3/110/ 6
BUOY 41025       0750   73 77  200/ 12/ 16 1027.2F   3/10   3/ 60/10
CAPE LOOKOUT NC  0700   67     180/  5/  5 1027.1F
BUOY 41002       0750   68 70  100/ 16/ 17 1026.2F   5/11   3/ 50/11
BUOY 41010       0720   74 78   80/ 16/ 17 1021.9F
ST AUGUSTINE FL  0800   71 71   50/  8/  9 1023.1F


$$



USA.gov is the U.S. government's official web portal to all federal, state and local government web resources and services.